Regional Weather Roundup
Issued by NWS Cleveland, OH

Home | Current Version | Previous Version | Text Only | Print | Product List | Glossary Off
Versions: 1 2 3 4 5 6 7 8 9 10 11 12 13 14 15 16 17 18 19 20 21 22 23 24 25 26 27 28 29 30 31 32 33 34 35 36 37 38 39 40 41 42 43 44 45 46 47 48 49 50

000
ASUS41 KCLE 201910
RWRCLE
OHIO REGIONAL WEATHER ROUNDUP
NATIONAL WEATHER SERVICE CLEVELAND, OH
300 PM EDT SAT SEP 20 2014

NOTE: "FAIR" INDICATES FEW OR NO CLOUDS BELOW 12,000 FEET WITH NO
SIGNIFICANT WEATHER AND/OR OBSTRUCTIONS TO VISIBILITY.

OHZ001>008-015>018-024>027-034-035-043-044-202000-
   NORTHWEST OHIO

CITY           SKY/WX    TMP DP  RH WIND       PRES   REMARKS
DEFIANCE       SUNNY     80  60  50 SW18G24   29.90F
FINDLAY        SUNNY     82  57  42 SW22G28   29.91F
TOLEDO EXPRESS SUNNY     80  59  48 SW15G24   29.89F
TOLEDO EXEC    SUNNY     81  57  43 SW22G30   29.89F
LIMA           SUNNY     80  59  48 SW18G25   29.94F
$$

OHZ009>014-019>023-028>033-038-089-202000-
   NORTHEAST OHIO

CITY           SKY/WX    TMP DP  RH WIND       PRES   REMARKS
CLE-HOPKINS    MOSUNNY   78  62  57 S20       29.95F
CLE-LAKEFRONT  MOSUNNY   79  61  53 S22G29    29.92F
CUY CO. ARPT   PTSUNNY   77  63  61 S17G25    29.95F
LORAIN-ELYRIA  SUNNY     82  60  47 SW24G31   29.94F
ASHTABULA      MOSUNNY   76  61  59 SW16G31   29.97F
AKRON-CANTON   PTSUNNY   77  62  59 S20G25    29.99F
WOOSTER        PTSUNNY   77  63  61 S16       29.99F
MANSFIELD      MOSUNNY   79  61  53 S21G26    29.97F
YOUNGSTOWN     CLOUDY    76  61  59 S12G20    30.00F
$$

OHZ042-051>053-060>062-070>072-077>081-202000-
  SOUTHWEST OHIO

CITY           SKY/WX    TMP DP  RH WIND       PRES   REMARKS
CINC-COVINGTON PTSUNNY   80  66  62 SW14      30.03F
CINC-LUNKEN    PTSUNNY   80  66  62 SW12      30.02F
HAMILTON       MOSUNNY   82  66  58 VRB7      30.00F
DAYTON         PTSUNNY   81  60  48 SW22      29.99F
WRIGHT-PAT AFB PTSUNNY   80  64  56 SW20G25   29.98F
DAYTON GENERAL PTSUNNY   79  64  60 SW13G23   29.99F
WILMINGTON     PTSUNNY   79  63  57 SW14G26   30.01F
$$

OHZ036-037-039>041-045>050-054>059-063>069-073>076-082>088-202000-
  CENTRAL AND SOUTHEAST OHIO

CITY           SKY/WX    TMP DP  RH WIND       PRES   REMARKS
COLUMBUS       PTSUNNY   82  61  48 SW15G24   29.99F
OSU AIRPORT    MOSUNNY   80  60  50 SW14G28   29.98F
BOLTON FIELD   MOSUNNY   81  64  57 SW16G25   30.00F
RICKENBACK AFB PTSUNNY   80  62  53 SW17      29.99F
NEWARK         PTSUNNY   80  62  54 S13       30.00F
MARION         MOSUNNY   80  58  46 SW21G26   29.97F
LANCASTER      PTSUNNY   81  62  52 SW12G21   30.02F
ZANESVILLE     PTSUNNY   79  62  56 S13       30.03F
NEW PHILLY     PTSUNNY   77  63  61 S13G22    30.01F
$$



USA.gov is the U.S. government's official web portal to all federal, state and local government web resources and services.